Regional Weather Roundup
Issued by NWS

Home | Current Version | Previous Version | Graphics & Text | Print | Product List | Glossary On
Versions: 1 2 3 4 5 6 7 8 9 10 11 12 13 14 15 16 17 18 19 20 21 22 23 24 25 26 27 28 29 30 31 32 33 34 35 36 37 38 39 40 41 42 43 44 45 46 47 48 49 50
000
ASUS43 KTOP 171108
RWRKS

WEATHER ROUNDUP FOR KANSAS
NATIONAL WEATHER SERVICE GOODLAND KS
500 AM CST FRI NOV 17 2017

NOTE:  "FAIR" INDICATES FEW OR NO CLOUDS BELOW 12,000 FEET WITH NO
SIGNIFICANT WEATHER AND/OR OBSTRUCTIONS TO VISIBILITY.

KSZ001>006-013>018-027>032-041>047-171200-
NORTHWEST KANSAS

CITY           SKY/WX    TMP DP  RH WIND       PRES   REMARKS
GOODLAND       CLOUDY    54  32  43 SW13      29.64F
HAYS           CLOUDY    50  48  93 S12       29.65F
HILL CITY      CLOUDY    47  44  90 SW6       29.63F
RUSSELL        CLOUDY    54  53  97 S22       29.62F
$$

KSZ061>065-074>080-084>089-171200-
SOUTHWEST KANSAS

CITY           SKY/WX    TMP DP  RH WIND       PRES   REMARKS
DODGE CITY     PTCLDY    47  44  90 S13       29.69F
ELKHART        CLOUDY    61  35  37 W13       29.74F
GARDEN CITY    CLOUDY    46  38  73 S7        29.68F
LIBERAL        CLEAR     53  34  48 W13       29.72F
PRATT          CLOUDY    55  53  92 S20G26    29.71S
$$

KSZ066>073-081>083-090>101-171200-
SOUTHEAST KANSAS

CITY           SKY/WX    TMP DP  RH WIND       PRES   REMARKS
CHANUTE        CLOUDY    58  53  84 S15G24    29.84F
COFFEYVILLE    CLOUDY    60  55  83 S12G20    29.86F
HUTCHINSON     CLOUDY    60  58  92 S17       29.71F FOG
MEDICINE LODGE   N/A     58  57  97 S13       29.72F
NEWTON         CLOUDY    58  56  93 S23       29.72F
PARSONS          N/A    N/A N/A N/A MISG      29.86F
WICHITA INTL   CLOUDY    59  58  96 S24G30    29.73F
WICHITA JABRA  CLOUDY    58  58 100 S17G26    29.73F FOG
WICHITA MCCONL CLOUDY    59  57  94 S23       29.74F
WINFIELD       CLOUDY    58  58 100 S13       29.80F FOG
$$

KSZ007>012-019>026-033>040-048>060-102>105-171200-
NORTHEAST KANSAS

CITY           SKY/WX    TMP DP  RH WIND       PRES   REMARKS
CONCORDIA      CLOUDY    59  55  87 S18G24    29.67S
EMPORIA        CLOUDY    54  53  97 S15       29.76F FOG
LAWRENCE       CLOUDY    56  49  77 SE12      29.80F
MANHATTAN      CLOUDY    59  55  87 S10       29.72F
MARYSVILLE     CLOUDY    55  52  88 S15G21    29.69F
OLATHE IND     CLOUDY    54  48  80 S12       29.82F
OLATHE EXE     CLOUDY    53  48  83 S14       29.83S
SALINA         CLOUDY    62  57  83 S13G25    29.70R
TOPEKA BILLARD CLOUDY    57  52  83 SE14      29.77F
TOPEKA FORBES  CLOUDY    58  53  84 S16G24    29.77F
$$




USA.gov is the U.S. government's official web portal to all federal, state and local government web resources and services.